User: anonymous
Location: Slanting_Bridge
(35.6330°N, 80.9830°W)
Time: 09:33:12
(UTC-04:00)
Language:

Hamsat - Orbit

View from above orbital plane
View from above orbital plane
View from above satellite
View from above satellite

Ground track
Ground track

The orbit data is extracted from the following two-line orbital elements,

1 28650U 05017B   14259.75428643  .00001656  00000-0  19557-3 0  8430
2 28650 097.5637 260.1705 0024210 212.2411 147.7326 14.85770574506822
Epoch (UTC): 16 September 2014 18:06:10
Eccentricity: 0.0024210
inclination: 97.5637°
perigee height: 594 km
apogee height: 628 km
right ascension of ascending node: 260.1705°
argument of perigee: 212.2411°
revolutions per day: 14.85770574
mean anomaly at epoch: 147.7326°
orbit number at epoch: 50682

The dashed part of the orbit path shows where the satellite is in the earth's shadow,  

DLR